EB2EMZ-14 Weather Reports


time (UTC)temp
C
wind
direction
speed
KPH
gust
KPH
rain 1hr
cm
rain 24hr
cm
rain mn
cm
humidity
%
barometer
mb
20260503190017 13 45 0.0 0.0 0.00 0.10 0.10 81 1010.1
20260503185518 13 45 0.0 0.0 0.00 0.10 0.10 82 1010.1
20260503185019 13 45 0.0 0.0 0.00 0.10 0.10 81 1010.0
20260503184519 13 45 0.0 0.0 0.00 0.10 0.10 81 1009.9
20260503184019 13 51 0.0 0.0 0.00 0.10 0.10 81 1009.7
20260503183519 13 68 0.0 0.0 0.00 0.10 0.10 81 1009.8
20260503183018 13 68 0.0 0.0 0.00 0.10 0.10 81 1009.7
20260503182519 13 133 0.0 0.0 0.00 0.10 0.10 81 1009.7
20260503182018 13 135 0.0 0.0 0.00 0.10 0.10 81 1009.6
20260503181518 13 135 0.0 0.0 0.00 0.10 0.10 81 1009.6
20260503181017 13 135 0.0 3.2 0.00 0.10 0.10 81 1009.6
20260503180517 13 90 1.6 4.8 0.00 0.10 0.10 81 1009.6
20260503180017 13 105 0.0 0.0 0.00 0.10 0.10 81 1009.7
20260503175519 13 66 0.0 0.0 0.00 0.10 0.10 82 1009.8
20260503175018 13 77 0.0 1.6 0.00 0.10 0.10 81 1009.9
20260503174518 13 90 1.6 3.2 0.00 0.15 0.10 81 1009.9
20260503174018 13 135 0.0 3.2 0.00 0.15 0.10 81 1010.1
20260503173518 13 90 0.0 3.2 0.00 0.20 0.10 81 1009.9
20260503173018 13 158 0.0 3.2 0.00 0.25 0.10 81 1009.9
20260503172518 13 112 1.6 9.7 0.00 0.30 0.10 80 1009.8
20260503172017 12 79 1.6 9.7 0.00 0.30 0.10 80 1010.0
20260503171518 12 135 0.0 0.0 0.00 0.36 0.10 79 1010.1
20260503171018 12 135 0.0 0.0 0.00 0.36 0.10 79 1010.1
20260503170519 13 90 0.0 3.2 0.00 0.36 0.10 78 1009.9
20260503150519 19 81 3.2 8.0 0.00 0.25 0.00 61 1009.7
20260503131017 20 63 0.0 9.7 0.00 0.81 0.00 62 1011.2
20260503130518 20 90 1.6 11.3 0.00 0.81 0.00 63 1011.4
20260503110520 20 165 1.6 9.7 0.00 0.81 0.00 63 1012.4
20260503081517 26 135 4.8 9.7 0.00 0.81 0.00 55 1012.4
20260503081017 26 194 1.6 8.0 0.00 0.81 0.00 57 1012.3
20260503080516 25 179 0.0 11.3 0.00 0.81 0.00 62 1012.4
20260503072517 15 202 1.6 4.8 0.00 0.81 0.00 86 1012.5
20260503072017 16 202 0.0 4.8 0.00 0.81 0.00 87 1012.6
20260503071518 16 135 1.6 8.0 0.00 0.81 0.00 88 1012.6
20260503071018 16 268 0.0 0.0 0.00 0.81 0.00 89 1012.5
20260503070518 16 164 1.6 8.0 0.00 0.81 0.00 92 1012.4
20260503055017 10 340 0.0 0.0 0.00 0.81 0.00 93 1012.5
20260503054516 10 338 0.0 0.0 0.00 0.81 0.00 93 1012.4
20260503054018 10 338 0.0 0.0 0.00 0.81 0.00 93 1012.3
20260503053517 10 338 0.0 0.0 0.00 0.81 0.00 93 1012.2
20260503053017 10 338 0.0 0.0 0.00 0.81 0.00 92 1012.1
20260503052517 9 338 0.0 3.2 0.00 0.81 0.00 92 1012.1
20260503052017 9 251 0.0 0.0 0.00 0.81 0.00 92 1012.1
20260503051517 9 248 0.0 0.0 0.00 0.81 0.00 92 1012.0
20260503051017 9 248 0.0 0.0 0.00 0.81 0.00 92 1011.9
20260503050517 9 248 0.0 0.0 0.00 0.81 0.00 92 1011.8
20260503050018 9 248 0.0 0.0 0.00 0.81 0.00 92 1011.9
20260503045517 9 248 0.0 0.0 0.00 0.81 0.00 92 1012.0
20260503045017 10 248 0.0 0.0 0.00 0.81 0.00 92 1011.8
20260503044517 10 248 0.0 0.0 0.00 0.81 0.00 92 1011.9
20260503044016 10 248 0.0 0.0 0.00 0.81 0.00 92 1012.0
20260503043517 10 248 0.0 4.8 0.00 0.81 0.00 93 1012.1
20260503043017 10 264 0.0 0.0 0.00 0.81 0.00 93 1012.1
20260503042518 10 202 0.0 0.0 0.00 0.81 0.00 93 1012.2
20260503042016 10 180 0.0 0.0 0.00 0.81 0.00 92 1012.1
20260503041517 10 202 0.0 0.0 0.00 0.81 0.00 92 1012.0
20260503041016 10 225 0.0 0.0 0.00 0.81 0.00 92 1012.2
20260503040517 10 182 0.0 0.0 0.00 0.81 0.00 92 1012.3
20260503040017 10 180 0.0 1.6 0.00 0.81 0.00 92 1012.1
20260503035517 10 180 0.0 1.6 0.00 0.81 0.00 92 1012.2
20260503035017 10 180 0.0 3.2 0.00 0.81 0.00 92 1012.2
20260503034517 10 189 0.0 3.2 0.00 0.81 0.00 92 1012.3
20260503034017 10 180 0.0 4.8 0.00 0.81 0.00 92 1012.2
20260503033517 10 187 0.0 4.8 0.00 0.81 0.00 92 1012.3
20260503033016 10 189 0.0 1.6 0.00 0.81 0.00 92 1012.2
20260503032517 10 202 0.0 0.0 0.00 0.81 0.00 92 1012.3
20260503032017 10 120 0.0 0.0 0.00 0.81 0.00 92 1012.3
20260503031517 10 112 0.0 0.0 0.00 0.81 0.00 93 1012.4
20260503031017 10 90 0.0 0.0 0.00 0.81 0.00 93 1012.4
20260503030517 10 90 0.0 0.0 0.00 0.81 0.00 93 1012.5
20260503030016 10 90 0.0 0.0 0.00 0.81 0.00 93 1012.6
20260503025516 10 90 0.0 0.0 0.00 0.81 0.00 93 1012.8
20260503025017 10 90 0.0 0.0 0.00 0.81 0.00 93 1012.6
20260503024517 10 90 0.0 0.0 0.00 0.81 0.00 93 1012.5
20260503024017 10 45 0.0 0.0 0.00 0.81 0.00 93 1012.5
20260503023516 10 45 0.0 0.0 0.00 0.81 0.00 92 1012.5
20260503023017 10 48 0.0 0.0 0.00 0.81 0.00 92 1012.5
20260503022516 10 22 0.0 1.6 0.00 0.81 0.00 92 1012.6
20260503022018 10 315 0.0 0.0 0.00 0.81 0.00 92 1012.5
20260503021516 10 45 0.0 0.0 0.00 0.81 0.00 92 1012.5
20260503021018 10 45 0.0 0.0 0.00 0.81 0.00 92 1012.6
20260503020517 10 68 0.0 0.0 0.00 0.81 0.00 92 1012.6
20260503020016 10 62 0.0 0.0 0.00 0.81 0.00 92 1012.6
20260503015517 10 68 0.0 0.0 0.00 0.81 0.00 92 1012.8
20260503015016 10 135 0.0 0.0 0.00 0.81 0.00 92 1012.7
20260503014517 10 90 0.0 4.8 0.00 0.81 0.00 92 1012.7
20260503014016 10 99 0.0 3.2 0.00 0.81 0.00 92 1012.8
20260503013517 10 121 1.6 4.8 0.00 0.81 0.00 92 1012.8
20260503013018 10 93 0.0 1.6 0.00 0.81 0.00 92 1012.8
20260503012516 10 197 0.0 0.0 0.00 0.81 0.00 92 1012.9
20260503012017 10 22 0.0 0.0 0.00 0.81 0.00 92 1012.9
20260503011516 10 22 0.0 0.0 0.00 0.81 0.00 92 1012.9
20260503011016 10 22 0.0 0.0 0.00 0.81 0.00 92 1012.9
20260503010518 10 22 0.0 0.0 0.00 0.81 0.00 92 1013.3
20260503010017 9 112 0.0 0.0 0.00 0.81 0.00 91 1013.3
20260503005517 9 112 0.0 0.0 0.00 0.81 0.00 91 1013.2
20260503005019 9 112 0.0 0.0 0.00 0.81 0.00 91 1013.2
20260503004516 9 112 0.0 0.0 0.00 0.81 0.00 91 1013.3
20260503004019 10 112 0.0 0.0 0.00 0.81 0.00 91 1013.3
20260503003518 10 112 0.0 0.0 0.00 0.81 0.00 91 1013.3
20260503003017 10 112 0.0 0.0 0.00 0.81 0.00 91 1013.3
20260503002517 10 135 0.0 0.0 0.00 0.81 0.00 91 1013.3
20260503002018 10 135 0.0 0.0 0.00 0.81 0.00 91 1013.4
20260503001517 10 129 0.0 0.0 0.00 0.81 0.00 91 1013.3
20260503001017 10 94 0.0 0.0 0.00 0.81 0.00 91 1013.2
20260503000518 10 77 0.0 0.0 0.00 0.81 0.00 91 1013.5
20260503000019 10 68 0.0 0.0 0.00 0.81 0.00 91 1013.5
20260502235517 10 68 0.0 0.0 0.00 0.81 0.00 91 1013.5
20260502235016 10 72 0.0 0.0 0.00 0.81 0.00 91 1013.5
20260502234519 10 45 0.0 0.0 0.00 0.81 0.00 91 1013.3
20260502234016 10 68 0.0 0.0 0.00 0.81 0.00 91 1013.5
20260502233516 10 68 0.0 0.0 0.00 0.81 0.00 91 1013.6
20260502233016 10 70 0.0 4.8 0.00 0.81 0.00 91 1013.6
20260502232516 10 112 0.0 0.0 0.00 0.81 0.00 91 1013.5
20260502232016 10 112 0.0 0.0 0.00 0.81 0.00 91 1013.7
20260502231517 11 112 0.0 0.0 0.00 0.81 0.00 91 1013.6
20260502231016 11 112 0.0 0.0 0.00 0.81 0.00 91 1013.6
20260502230516 11 112 0.0 0.0 0.00 0.81 0.00 91 1013.5
20260502230016 11 112 0.0 0.0 0.00 0.81 0.00 91 1013.6
20260502225516 11 112 0.0 0.0 0.00 0.81 0.00 91 1013.6
20260502225017 11 112 0.0 0.0 0.00 0.81 0.00 91 1013.7
20260502224517 11 112 0.0 0.0 0.00 0.81 0.00 90 1013.6
20260502224017 10 135 0.0 0.0 0.00 0.81 0.00 90 1013.5
20260502223517 10 135 0.0 0.0 0.00 0.81 0.00 90 1013.4
20260502223016 10 135 0.0 0.0 0.00 0.81 0.00 90 1013.5
20260502222516 10 135 0.0 0.0 0.00 0.81 0.00 90 1013.5
20260502222018 11 135 0.0 0.0 0.00 0.81 0.00 90 1013.5
20260502221516 11 135 0.0 0.0 0.00 0.81 0.00 90 1013.5
20260502221019 11 135 0.0 0.0 0.00 0.81 0.00 89 1013.4
20260502220516 11 135 0.0 0.0 0.00 0.81 0.00 89 1013.3
20260502220017 11 135 0.0 0.0 0.00 0.81 0.00 89 1013.4
20260502215516 11 101 0.0 0.0 0.00 0.81 0.81 89 1013.4
20260502215017 11 90 0.0 0.0 0.00 0.81 0.81 89 1013.5
20260502214516 11 100 0.0 0.0 0.00 0.81 0.81 89 1013.5
20260502214016 11 158 0.0 0.0 0.00 0.81 0.81 89 1013.5
20260502213517 11 112 0.0 0.0 0.00 0.81 0.81 89 1013.4
20260502213017 11 78 0.0 0.0 0.00 0.81 0.81 89 1013.5
20260502212516 11 112 0.0 0.0 0.00 0.81 0.81 89 1013.5
20260502212017 11 112 0.0 0.0 0.00 0.81 0.81 89 1013.4
20260502211518 12 112 0.0 0.0 0.00 0.81 0.81 89 1013.4
20260502211017 12 112 0.0 0.0 0.00 0.81 0.81 89 1013.3
20260502210516 12 112 0.0 0.0 0.00 0.81 0.81 89 1013.4
20260502210016 12 116 0.0 0.0 0.00 0.81 0.81 89 1013.4
20260502205516 12 135 0.0 0.0 0.00 0.81 0.81 89 1013.4
20260502205017 12 135 0.0 0.0 0.00 0.81 0.81 89 1013.3
20260502204516 12 135 0.0 0.0 0.00 0.81 0.81 89 1013.3
20260502204017 12 135 0.0 0.0 0.00 0.81 0.81 89 1013.2
20260502203516 12 119 0.0 0.0 0.00 0.81 0.81 89 1013.1
20260502203018 12 135 0.0 0.0 0.00 0.81 0.81 89 1013.1
20260502202516 12 135 0.0 0.0 0.00 0.81 0.81 89 1013.2
20260502202016 12 135 0.0 0.0 0.00 0.81 0.81 89 1013.2
20260502201516 12 135 0.0 0.0 0.00 0.81 0.81 88 1013.2
20260502201016 12 112 0.0 0.0 0.00 0.81 0.81 88 1013.1
20260502200516 12 112 0.0 0.0 0.00 0.81 0.81 88 1013.1
20260502200016 12 110 0.0 0.0 0.00 0.81 0.81 88 1013.2
20260502195516 12 100 0.0 0.0 0.00 0.81 0.81 88 1013.3
20260502195016 12 112 0.0 0.0 0.00 0.81 0.81 88 1013.3
20260502194517 12 112 0.0 0.0 0.00 0.81 0.81 87 1013.2
20260502194016 12 112 0.0 0.0 0.00 0.81 0.81 87 1013.1
20260502193516 12 112 0.0 0.0 0.00 0.81 0.81 87 1013.1
20260502193016 12 112 0.0 0.0 0.00 0.81 0.81 87 1013.2
20260502192516 12 112 0.0 0.0 0.00 0.81 0.81 87 1013.1
20260502192017 12 112 0.0 0.0 0.00 0.81 0.81 87 1012.9
20260502191517 12 112 0.0 0.0 0.00 0.81 0.81 87 1012.9
20260502191017 12 90 0.0 0.0 0.00 0.81 0.81 87 1012.8
20260502190516 12 90 0.0 0.0 0.00 0.81 0.81 87 1012.7